StationID,Date,MaxTemp,MinTemp,Precipitation,Snowfall,SnowDepth
"CA002100FRN","1984-10-01",,,0.00,0.00,
"CA002100FRN","1984-10-02",44.60,,0.00,0.00,
"CA002100FRN","1984-10-03",45.50,15.80,0.00,0.00,
"CA002100FRN","1984-10-04",43.70,27.50,8.00,8.00,
"CA002100FRN","1984-10-05",47.30,29.30,0.00,0.00,
"CA002100FRN","1984-10-06",52.70,37.40,0.00,0.00,
"CA002100FRN","1984-10-07",56.30,41.00,0.00,0.00,
"CA002100FRN","1984-10-08",52.70,38.30,0.00,0.00,
"CA002100FRN","1984-10-09",50.00,25.70,0.00,0.00,
"CA002100FRN","1984-10-10",47.30,32.00,0.00,0.00,
"CA002100FRN","1984-10-11",48.20,33.80,0.00,0.00,
"CA002100FRN","1984-10-12",42.80,19.40,8.00,8.00,
"CA002100FRN","1984-10-13",35.60,32.00,34.00,34.00,10.00
"CA002100FRN","1984-10-14",39.20,32.00,6.00,6.00,20.00
"CA002100FRN","1984-10-15",35.60,23.90,6.00,6.00,20.00
"CA002100FRN","1984-10-16",34.70,24.80,0.00,0.00,10.00
"CA002100FRN","1984-10-17",32.00,11.30,0.00,0.00,0.00
"CA002100FRN","1984-10-18",32.00,14.00,0.00,0.00,0.00
"CA002100FRN","1984-10-19",32.90,3.20,0.00,0.00,0.00
"CA002100FRN","1984-10-20",39.20,10.40,0.00,0.00,0.00
"CA002100FRN","1984-10-21",35.60,14.00,12.00,12.00,10.00
"CA002100FRN","1984-10-22",44.60,31.10,0.00,0.00,0.00
"CA002100FRN","1984-10-23",39.20,33.80,12.00,0.00,0.00
"CA002100FRN","1984-10-24",33.80,18.50,0.00,0.00,0.00
"CA002100FRN","1984-10-25",33.80,24.80,10.00,10.00,10.00
"CA002100FRN","1984-10-26",16.70,7.70,0.00,0.00,10.00
"CA002100FRN","1984-10-27",14.90,-1.30,14.00,14.00,0.00
"CA002100FRN","1984-10-28",14.00,2.30,4.00,4.00,10.00
"CA002100FRN","1984-10-29",8.60,-7.60,0.00,0.00,10.00
"CA002100FRN","1984-10-30",5.90,-23.80,0.00,0.00,10.00
"CA002100FRN","1984-10-31",3.20,-20.20,0.00,0.00,10.00
"CA002100FRN","1984-11-01",1.40,-11.20,0.00,0.00,10.00
"CA002100FRN","1984-11-02",-1.30,-18.40,2.00,2.00,10.00
"CA002100FRN","1984-11-03",1.40,-16.60,0.00,0.00,10.00
"CA002100FRN","1984-11-04",8.60,-19.30,0.00,0.00,10.00
"CA002100FRN","1984-11-05",24.80,-1.30,0.00,0.00,10.00
"CA002100FRN","1984-11-06",20.30,12.20,2.00,2.00,10.00
"CA002100FRN","1984-11-07",21.20,10.40,4.00,4.00,10.00
"CA002100FRN","1984-11-08",20.30,14.00,2.00,2.00,20.00
"CA002100FRN","1984-11-09",23.00,16.70,0.00,0.00,20.00
"CA002100FRN","1984-11-10",19.40,11.30,4.00,4.00,20.00
"CA002100FRN","1984-11-11",17.60,11.30,74.00,74.00,50.00
"CA002100FRN","1984-11-12",19.40,10.40,50.00,50.00,100.00
"CA002100FRN","1984-11-13",14.00,3.20,0.00,0.00,130.00
"CA002100FRN","1984-11-14",-2.20,-11.20,0.00,0.00,130.00
"CA002100FRN","1984-11-15",11.30,-12.10,2.00,2.00,130.00
"CA002100FRN","1984-11-16",17.60,-7.60,6.00,6.00,120.00
"CA002100FRN","1984-11-17",23.90,9.50,2.00,2.00,120.00
"CA002100FRN","1984-11-18",15.80,10.40,8.00,8.00,120.00
"CA002100FRN","1984-11-19",19.40,8.60,0.00,0.00,120.00
"CA002100FRN","1984-11-20",33.80,5.00,0.00,0.00,110.00
"CA002100FRN","1984-11-21",35.60,27.50,0.00,0.00,100.00
"CA002100FRN","1984-11-22",31.10,27.50,42.00,42.00,130.00
"CA002100FRN","1984-11-23",29.30,23.00,0.00,0.00,130.00
"CA002100FRN","1984-11-24",17.60,7.70,0.00,0.00,130.00
"CA002100FRN","1984-11-25",5.00,-8.50,0.00,0.00,130.00
"CA002100FRN","1984-11-26",19.40,-4.90,0.00,0.00,120.00
"CA002100FRN","1984-11-27",7.70,-9.40,14.00,14.00,130.00
"CA002100FRN","1984-11-28",10.40,5.00,0.00,0.00,130.00
"CA002100FRN","1984-11-29",4.10,-9.40,2.00,2.00,130.00
"CA002100FRN","1984-11-30",-2.20,-6.70,2.00,2.00,130.00
"CA002100FRN","1984-12-01",-8.50,-14.80,0.00,0.00,130.00
"CA002100FRN","1984-12-02",20.30,-20.20,0.00,0.00,120.00
"CA002100FRN","1984-12-03",29.30,3.20,0.00,0.00,120.00
"CA002100FRN","1984-12-04",31.10,0.50,0.00,0.00,120.00
"CA002100FRN","1984-12-05",33.80,25.70,10.00,10.00,120.00
"CA002100FRN","1984-12-06",30.20,15.80,14.00,14.00,120.00
"CA002100FRN","1984-12-07",32.00,8.60,2.00,2.00,130.00
"CA002100FRN","1984-12-08",31.10,15.80,0.00,0.00,130.00
"CA002100FRN","1984-12-09",17.60,4.10,12.00,12.00,140.00
"CA002100FRN","1984-12-10",8.60,-23.80,0.00,0.00,140.00
"CA002100FRN","1984-12-11",3.20,-9.40,56.00,56.00,150.00
"CA002100FRN","1984-12-12",2.30,-5.80,16.00,16.00,210.00
"CA002100FRN","1984-12-13",1.40,-7.60,76.00,76.00,240.00
"CA002100FRN","1984-12-14",-1.30,-20.20,2.00,2.00,280.00
"CA002100FRN","1984-12-15",-22.90,-42.70,0.00,0.00,280.00
"CA002100FRN","1984-12-16",-7.60,-37.30,0.00,0.00,280.00
"CA002100FRN","1984-12-17",6.80,-13.00,0.00,0.00,280.00
"CA002100FRN","1984-12-18",24.80,-5.80,48.00,48.00,310.00
"CA002100FRN","1984-12-19",29.30,8.60,32.00,32.00,340.00
"CA002100FRN","1984-12-20",-13.00,-26.50,0.00,0.00,340.00
"CA002100FRN","1984-12-21",-5.80,-22.90,10.00,10.00,340.00
"CA002100FRN","1984-12-22",-4.00,-20.20,0.00,0.00,340.00
"CA002100FRN","1984-12-23",11.30,-12.10,90.00,90.00,330.00
"CA002100FRN","1984-12-24",8.60,0.50,4.00,4.00,400.00
"CA002100FRN","1984-12-25",-11.20,-22.90,0.00,0.00,390.00
"CA002100FRN","1984-12-26",-5.80,-30.10,4.00,4.00,380.00
"CA002100FRN","1984-12-27",-5.80,-20.20,2.00,2.00,380.00
"CA002100FRN","1984-12-28",-34.60,-50.80,2.00,2.00,380.00
"CA002100FRN","1984-12-29",-37.30,-55.30,0.00,0.00,380.00
"CA002100FRN","1984-12-30",15.80,-41.80,0.00,0.00,360.00
"CA002100FRN","1984-12-31",30.20,-29.20,0.00,0.00,350.00
"CA002100FRN","1985-01-01",40.10,14.90,0.00,0.00,330.00
"CA002100FRN","1985-01-02",39.20,31.10,10.00,10.00,320.00
"CA002100FRN","1985-01-03",37.40,12.20,0.00,0.00,330.00
"CA002100FRN","1985-01-04",37.40,25.70,16.00,16.00,320.00
"CA002100FRN","1985-01-05",24.80,5.00,0.00,0.00,320.00
"CA002100FRN","1985-01-06",28.40,-10.30,6.00,6.00,330.00
"CA002100FRN","1985-01-07",33.80,23.00,0.00,0.00,330.00
"CA002100FRN","1985-01-08",36.50,27.50,0.00,0.00,320.00
"CA002100FRN","1985-01-09",38.30,32.90,0.00,0.00,310.00
"CA002100FRN","1985-01-10",32.00,17.60,0.00,0.00,310.00
"CA002100FRN","1985-01-11",36.50,24.80,80.00,80.00,310.00
"CA002100FRN","1985-01-12",32.00,28.40,30.00,30.00,400.00
"CA002100FRN","1985-01-13",24.80,5.00,30.00,30.00,430.00
"CA002100FRN","1985-01-14",16.70,-1.30,0.00,0.00,430.00
"CA002100FRN","1985-01-15",23.90,-6.70,68.00,68.00,410.00
"CA002100FRN","1985-01-16",36.50,6.80,16.00,16.00,480.00
"CA002100FRN","1985-01-17",29.30,7.70,0.00,0.00,460.00
"CA002100FRN","1985-01-18",23.90,14.90,36.00,36.00,460.00
"CA002100FRN","1985-01-19",23.00,6.80,2.00,2.00,480.00
"CA002100FRN","1985-01-20",38.30,18.50,0.00,0.00,470.00
"CA002100FRN","1985-01-21",36.50,13.10,0.00,0.00,450.00
"CA002100FRN","1985-01-22",36.50,26.60,0.00,0.00,430.00
"CA002100FRN","1985-01-23",40.10,33.80,0.00,0.00,420.00
"CA002100FRN","1985-01-24",37.40,32.00,0.00,0.00,420.00
"CA002100FRN","1985-01-25",32.00,15.80,0.00,0.00,410.00
"CA002100FRN","1985-01-26",30.20,5.00,0.00,0.00,410.00
"CA002100FRN","1985-01-27",18.50,-18.40,4.00,4.00,410.00
"CA002100FRN","1985-01-28",23.90,-0.40,0.00,0.00,400.00
"CA002100FRN","1985-01-29",17.60,3.20,0.00,0.00,400.00
"CA002100FRN","1985-01-30",26.60,3.20,0.00,0.00,400.00
"CA002100FRN","1985-01-31",35.60,-2.20,64.00,64.00,420.00
"CA002100FRN","1985-02-01",25.70,11.30,0.00,0.00,450.00
"CA002100FRN","1985-02-02",7.70,-5.80,0.00,0.00,440.00
"CA002100FRN","1985-02-03",21.20,-16.60,82.00,82.00,440.00
"CA002100FRN","1985-02-04",25.70,6.80,0.00,0.00,500.00
"CA002100FRN","1985-02-05",10.40,-13.00,0.00,0.00,500.00
"CA002100FRN","1985-02-06",10.40,5.00,0.00,0.00,500.00
"CA002100FRN","1985-02-07",4.10,-4.90,0.00,0.00,490.00
"CA002100FRN","1985-02-08",-2.20,-25.60,2.00,2.00,490.00
"CA002100FRN","1985-02-09",-9.40,-32.80,0.00,0.00,490.00
"CA002100FRN","1985-02-10",-19.30,-49.00,2.00,2.00,480.00
"CA002100FRN","1985-02-11",-19.30,-50.80,6.00,6.00,480.00
"CA002100FRN","1985-02-12",-13.00,-36.40,0.00,0.00,490.00
"CA002100FRN","1985-02-13",-11.20,-36.40,40.00,40.00,490.00
"CA002100FRN","1985-02-14",-2.20,-14.80,8.00,8.00,510.00
"CA002100FRN","1985-02-15",21.20,-7.60,0.00,0.00,510.00
"CA002100FRN","1985-02-16",1.40,-12.10,0.00,0.00,500.00
"CA002100FRN","1985-02-17",-4.00,-23.80,30.00,30.00,510.00
"CA002100FRN","1985-02-18",1.40,-18.40,2.00,2.00,520.00
"CA002100FRN","1985-02-19",-5.80,-35.50,0.00,0.00,520.00
"CA002100FRN","1985-02-20",4.10,-26.50,18.00,18.00,520.00
"CA002100FRN","1985-02-21",3.20,-4.00,36.00,36.00,540.00
"CA002100FRN","1985-02-22",3.20,-23.80,28.00,28.00,540.00
"CA002100FRN","1985-02-23",4.10,-13.90,0.00,0.00,550.00
"CA002100FRN","1985-02-24",21.20,-8.50,0.00,0.00,540.00
"CA002100FRN","1985-02-25",35.60,-18.40,0.00,0.00,530.00
"CA002100FRN","1985-02-26",41.90,19.40,0.00,0.00,500.00
"CA002100FRN","1985-02-27",38.30,33.80,0.00,0.00,480.00
"CA002100FRN","1985-02-28",33.80,12.20,18.00,18.00,470.00
"CA002100FRN","1985-03-01",22.10,-5.80,0.00,0.00,470.00
"CA002100FRN","1985-03-02",29.30,3.20,30.00,30.00,470.00
"CA002100FRN","1985-03-03",16.70,12.20,52.00,52.00,540.00
"CA002100FRN","1985-03-04",19.40,-9.40,0.00,0.00,540.00
"CA002100FRN","1985-03-05",15.80,-19.30,0.00,0.00,530.00
"CA002100FRN","1985-03-06",24.80,-15.70,0.00,0.00,530.00
"CA002100FRN","1985-03-07",39.20,13.10,0.00,0.00,500.00
"CA002100FRN","1985-03-08",37.40,6.80,0.00,0.00,490.00
"CA002100FRN","1985-03-09",40.10,6.80,0.00,0.00,480.00
"CA002100FRN","1985-03-10",38.30,8.60,0.00,0.00,480.00
"CA002100FRN","1985-03-11",37.40,17.60,0.00,0.00,470.00
"CA002100FRN","1985-03-12",40.10,27.50,0.00,0.00,460.00
"CA002100FRN","1985-03-13",28.40,3.20,14.00,14.00,460.00
"CA002100FRN","1985-03-14",36.50,2.30,0.00,0.00,460.00
"CA002100FRN","1985-03-15",37.40,14.00,0.00,0.00,460.00
"CA002100FRN","1985-03-16",39.20,8.60,0.00,0.00,450.00
"CA002100FRN","1985-03-17",34.70,14.90,0.00,0.00,450.00
"CA002100FRN","1985-03-18",40.10,23.00,0.00,0.00,450.00
"CA002100FRN","1985-03-19",38.30,12.20,0.00,0.00,440.00
"CA002100FRN","1985-03-20",35.60,-11.20,0.00,0.00,440.00
"CA002100FRN","1985-03-21",36.50,-4.00,0.00,0.00,440.00
"CA002100FRN","1985-03-22",34.70,-5.80,0.00,0.00,430.00
"CA002100FRN","1985-03-23",32.90,3.20,0.00,0.00,430.00
"CA002100FRN","1985-03-24",35.60,16.70,0.00,0.00,420.00
"CA002100FRN","1985-03-25",38.30,-4.00,0.00,0.00,420.00
"CA002100FRN","1985-03-26",34.70,5.00,0.00,0.00,420.00
"CA002100FRN","1985-03-27",32.90,1.40,0.00,0.00,420.00
"CA002100FRN","1985-03-28",31.10,-4.00,0.00,0.00,420.00
"CA002100FRN","1985-03-29",30.20,-5.80,0.00,0.00,420.00
"CA002100FRN","1985-03-30",39.20,18.50,0.00,0.00,410.00
"CA002100FRN","1985-03-31",43.70,28.40,0.00,0.00,380.00
"CA002100FRN","1985-04-01",38.30,23.00,8.00,8.00,380.00
"CA002100FRN","1985-04-02",32.00,10.40,0.00,0.00,370.00
"CA002100FRN","1985-04-03",43.70,23.00,0.00,0.00,360.00
"CA002100FRN","1985-04-04",40.10,27.50,0.00,0.00,360.00
"CA002100FRN","1985-04-05",39.20,5.90,0.00,0.00,360.00
"CA002100FRN","1985-04-06",40.10,6.80,0.00,0.00,350.00
"CA002100FRN","1985-04-07",48.20,30.20,0.00,0.00,310.00
"CA002100FRN","1985-04-08",42.80,30.20,0.00,0.00,300.00
"CA002100FRN","1985-04-09",36.50,27.50,0.00,0.00,280.00
"CA002100FRN","1985-04-10",38.30,1.40,0.00,0.00,270.00
"CA002100FRN","1985-04-11",41.90,22.10,0.00,0.00,260.00
"CA002100FRN","1985-04-12",47.30,31.10,0.00,0.00,230.00
"CA002100FRN","1985-04-13",38.30,22.10,2.00,2.00,220.00
"CA002100FRN","1985-04-14",33.80,13.10,0.00,0.00,220.00
"CA002100FRN","1985-04-15",41.00,14.00,0.00,0.00,210.00
"CA002100FRN","1985-04-16",43.70,7.70,0.00,0.00,200.00
"CA002100FRN","1985-04-17",41.90,28.40,0.00,0.00,190.00
"CA002100FRN","1985-04-18",40.10,14.00,0.00,0.00,180.00
"CA002100FRN","1985-04-19",42.80,14.00,0.00,0.00,160.00
"CA002100FRN","1985-04-20",42.80,12.20,0.00,0.00,130.00
"CA002100FRN","1985-04-21",45.50,21.20,0.00,0.00,90.00
"CA002100FRN","1985-04-22",43.70,11.30,0.00,0.00,70.00
"CA002100FRN","1985-04-23",48.20,15.80,0.00,0.00,50.00
"CA002100FRN","1985-04-24",47.30,16.70,0.00,0.00,40.00
"CA002100FRN","1985-04-25",41.00,18.50,0.00,0.00,30.00
"CA002100FRN","1985-04-26",41.00,27.50,80.00,80.00,20.00
"CA002100FRN","1985-04-27",39.20,29.30,152.00,152.00,20.00
"CA002100FRN","1985-04-28",35.60,26.60,20.00,20.00,110.00
"CA002100FRN","1985-04-29",43.70,6.80,0.00,0.00,40.00
"CA002100FRN","1985-04-30",43.70,28.40,0.00,0.00,20.00
"CA002100FRN","1985-05-01",46.40,23.00,0.00,0.00,20.00
"CA002100FRN","1985-05-02",50.00,26.60,0.00,0.00,10.00
"CA002100FRN","1985-05-03",56.30,26.60,0.00,0.00,0.00
"CA002100FRN","1985-05-04",55.40,32.90,0.00,0.00,0.00
"CA002100FRN","1985-05-05",44.60,38.30,12.00,0.00,0.00
"CA002100FRN","1985-05-06",53.60,28.40,0.00,0.00,0.00
"CA002100FRN","1985-05-07",45.50,29.30,0.00,0.00,0.00
"CA002100FRN","1985-05-08",53.60,33.80,0.00,0.00,0.00
"CA002100FRN","1985-05-09",50.90,34.70,0.00,0.00,0.00
"CA002100FRN","1985-05-10",41.90,21.20,0.00,0.00,0.00
"CA002100FRN","1985-05-11",43.70,15.80,0.00,0.00,0.00
"CA002100FRN","1985-05-12",45.50,20.30,0.00,0.00,0.00
"CA002100FRN","1985-05-13",50.90,34.70,0.00,0.00,0.00
"CA002100FRN","1985-05-14",43.70,30.20,0.00,0.00,0.00
"CA002100FRN","1985-05-15",55.40,32.00,0.00,0.00,0.00
"CA002100FRN","1985-05-16",59.90,32.90,0.00,0.00,0.00
"CA002100FRN","1985-05-17",62.60,26.60,0.00,0.00,0.00
"CA002100FRN","1985-05-18",58.10,27.50,0.00,0.00,0.00
"CA002100FRN","1985-05-19",56.30,26.60,0.00,0.00,0.00
"CA002100FRN","1985-05-20",45.50,33.80,24.00,0.00,0.00
"CA002100FRN","1985-05-21",48.20,32.90,8.00,0.00,0.00
"CA002100FRN","1985-05-22",60.80,30.20,0.00,0.00,0.00
"CA002100FRN","1985-05-23",66.20,23.00,0.00,0.00,0.00
"CA002100FRN","1985-05-24",70.70,25.70,0.00,0.00,0.00
"CA002100FRN","1985-05-25",70.70,39.20,0.00,0.00,0.00
"CA002100FRN","1985-05-26",71.60,28.40,8.00,0.00,0.00
"CA002100FRN","1985-05-27",63.50,35.60,0.00,0.00,0.00
"CA002100FRN","1985-05-28",68.00,30.20,0.00,0.00,0.00
"CA002100FRN","1985-05-29",68.90,44.60,0.00,0.00,0.00
"CA002100FRN","1985-05-30",65.30,42.80,0.00,0.00,0.00
"CA002100FRN","1985-05-31",65.30,41.90,0.00,0.00,0.00
"CA002100FRN","1985-06-01",68.90,41.00,0.00,0.00,0.00
"CA002100FRN","1985-06-02",74.30,27.50,0.00,0.00,0.00
"CA002100FRN","1985-06-03",80.60,32.00,0.00,0.00,0.00
"CA002100FRN","1985-06-04",71.60,50.00,18.00,0.00,0.00
"CA002100FRN","1985-06-05",52.70,41.00,0.00,0.00,0.00
"CA002100FRN","1985-06-06",53.60,39.20,0.00,0.00,0.00
"CA002100FRN","1985-06-07",52.70,34.70,0.00,0.00,0.00
"CA002100FRN","1985-06-08",57.20,25.70,0.00,0.00,0.00
"CA002100FRN","1985-06-09",56.30,38.30,0.00,0.00,0.00
"CA002100FRN","1985-06-10",65.30,34.70,60.00,0.00,0.00
"CA002100FRN","1985-06-11",63.50,41.00,0.00,0.00,0.00
"CA002100FRN","1985-06-12",60.80,40.10,2.00,0.00,0.00
"CA002100FRN","1985-06-13",55.40,38.30,12.00,0.00,0.00
"CA002100FRN","1985-06-14",58.10,25.70,0.00,0.00,0.00
"CA002100FRN","1985-06-15",60.80,23.00,0.00,0.00,0.00
"CA002100FRN","1985-06-16",58.10,24.80,14.00,0.00,0.00
"CA002100FRN","1985-06-17",58.10,34.70,0.00,0.00,0.00
"CA002100FRN","1985-06-18",62.60,41.00,0.00,0.00,0.00
"CA002100FRN","1985-06-19",62.60,28.40,0.00,0.00,0.00
"CA002100FRN","1985-06-20",61.70,39.20,0.00,0.00,0.00
"CA002100FRN","1985-06-21",53.60,25.70,6.00,0.00,0.00
"CA002100FRN","1985-06-22",66.20,41.00,38.00,0.00,0.00
"CA002100FRN","1985-06-23",60.80,43.70,14.00,0.00,0.00
"CA002100FRN","1985-06-24",56.30,38.30,6.00,0.00,0.00
"CA002100FRN","1985-06-25",59.90,40.10,0.00,0.00,0.00
"CA002100FRN","1985-06-26",58.10,26.60,278.00,0.00,0.00
"CA002100FRN","1985-06-27",51.80,37.40,80.00,0.00,0.00
"CA002100FRN","1985-06-28",67.10,41.00,8.00,0.00,0.00
"CA002100FRN","1985-06-29",76.10,37.40,0.00,0.00,0.00
"CA002100FRN","1985-06-30",83.30,38.30,0.00,0.00,0.00
"CA002100FRN","1985-07-01",68.90,52.70,0.00,0.00,0.00
"CA002100FRN","1985-07-02",69.80,42.80,0.00,0.00,0.00
"CA002100FRN","1985-07-03",72.50,48.20,0.00,0.00,0.00
"CA002100FRN","1985-07-04",73.40,47.30,0.00,0.00,0.00
"CA002100FRN","1985-07-05",73.40,41.90,50.00,0.00,0.00
"CA002100FRN","1985-07-06",66.20,51.80,18.00,0.00,0.00
"CA002100FRN","1985-07-07",74.30,35.60,0.00,0.00,0.00
"CA002100FRN","1985-07-08",68.90,48.20,0.00,0.00,0.00
"CA002100FRN","1985-07-09",68.00,47.30,0.00,0.00,0.00
"CA002100FRN","1985-07-10",64.40,49.10,12.00,0.00,0.00
"CA002100FRN","1985-07-11",64.40,50.90,2.00,0.00,0.00
"CA002100FRN","1985-07-12",69.80,44.60,0.00,0.00,0.00
"CA002100FRN","1985-07-13",63.50,44.60,10.00,0.00,0.00
"CA002100FRN","1985-07-14",67.10,45.50,40.00,0.00,0.00
"CA002100FRN","1985-07-15",68.00,41.90,4.00,0.00,0.00
"CA002100FRN","1985-07-16",78.80,36.50,0.00,0.00,0.00
"CA002100FRN","1985-07-17",76.10,50.00,24.00,0.00,0.00
"CA002100FRN","1985-07-18",74.30,42.80,28.00,0.00,0.00
"CA002100FRN","1985-07-19",76.10,44.60,10.00,0.00,0.00
"CA002100FRN","1985-07-20",69.80,48.20,0.00,0.00,0.00
"CA002100FRN","1985-07-21",55.40,38.30,6.00,0.00,0.00
"CA002100FRN","1985-07-22",68.90,37.40,0.00,0.00,0.00
"CA002100FRN","1985-07-23",64.40,44.60,0.00,0.00,0.00
"CA002100FRN","1985-07-24",59.90,42.80,22.00,0.00,0.00
"CA002100FRN","1985-07-25",59.00,42.80,60.00,0.00,0.00
"CA002100FRN","1985-07-26",68.90,44.60,4.00,0.00,0.00
"CA002100FRN","1985-07-27",77.90,38.30,0.00,0.00,0.00
"CA002100FRN","1985-07-28",79.70,36.50,0.00,0.00,0.00
"CA002100FRN","1985-07-29",77.00,42.80,0.00,0.00,0.00
"CA002100FRN","1985-07-30",76.10,39.20,30.00,0.00,0.00
"CA002100FRN","1985-07-31",68.90,36.50,0.00,0.00,0.00
"CA002100FRN","1985-08-01",69.80,32.90,8.00,0.00,0.00
"CA002100FRN","1985-08-02",68.00,44.60,0.00,0.00,0.00
"CA002100FRN","1985-08-03",68.00,31.10,0.00,0.00,0.00
"CA002100FRN","1985-08-04",68.00,32.90,28.00,0.00,0.00
"CA002100FRN","1985-08-05",68.90,38.30,2.00,0.00,0.00
"CA002100FRN","1985-08-06",73.40,39.20,0.00,0.00,0.00
"CA002100FRN","1985-08-07",77.90,34.70,4.00,0.00,0.00
"CA002100FRN","1985-08-08",67.10,46.40,0.00,0.00,0.00
"CA002100FRN","1985-08-09",68.00,39.20,0.00,0.00,0.00
"CA002100FRN","1985-08-10",69.80,46.40,2.00,0.00,0.00
"CA002100FRN","1985-08-11",66.20,35.60,6.00,0.00,0.00
"CA002100FRN","1985-08-12",72.50,39.20,0.00,0.00,0.00
"CA002100FRN","1985-08-13",72.50,49.10,76.00,0.00,0.00
"CA002100FRN","1985-08-14",68.00,48.20,2.00,0.00,0.00
"CA002100FRN","1985-08-15",71.60,42.80,6.00,0.00,0.00
"CA002100FRN","1985-08-16",60.80,41.90,4.00,0.00,0.00
"CA002100FRN","1985-08-17",53.60,39.20,108.00,0.00,0.00
"CA002100FRN","1985-08-18",59.00,41.00,38.00,0.00,0.00
"CA002100FRN","1985-08-19",62.60,28.40,2.00,0.00,0.00
"CA002100FRN","1985-08-20",55.40,30.20,16.00,0.00,0.00
"CA002100FRN","1985-08-21",54.50,36.50,6.00,0.00,0.00
"CA002100FRN","1985-08-22",59.90,39.20,0.00,0.00,0.00
"CA002100FRN","1985-08-23",53.60,28.40,38.00,0.00,0.00
"CA002100FRN","1985-08-24",59.00,40.10,27.00,0.00,0.00
"CA002100FRN","1985-08-25",58.10,28.40,28.00,0.00,0.00
"CA002100FRN","1985-08-26",56.30,32.00,4.00,0.00,0.00
"CA002100FRN","1985-08-27",61.70,32.90,34.00,0.00,0.00
"CA002100FRN","1985-08-28",59.00,34.70,12.00,0.00,0.00
"CA002100FRN","1985-08-29",62.60,29.30,0.00,0.00,0.00
"CA002100FRN","1985-08-30",59.90,34.70,10.00,0.00,0.00
"CA002100FRN","1985-08-31",64.40,40.10,2.00,0.00,0.00
"CA002100FRN","1985-09-01",61.70,28.40,36.00,0.00,0.00
"CA002100FRN","1985-09-02",60.80,42.80,26.00,0.00,0.00
"CA002100FRN","1985-09-03",57.20,30.20,16.00,0.00,0.00
"CA002100FRN","1985-09-04",48.20,41.00,33.00,0.00,0.00
"CA002100FRN","1985-09-05",51.80,30.20,0.00,0.00,0.00
"CA002100FRN","1985-09-06",56.30,23.90,0.00,0.00,0.00
"CA002100FRN","1985-09-07",64.40,35.60,0.00,0.00,0.00
"CA002100FRN","1985-09-08",67.10,29.30,0.00,0.00,0.00
"CA002100FRN","1985-09-09",59.90,41.00,8.00,0.00,0.00
"CA002100FRN","1985-09-10",60.80,45.50,0.00,0.00,0.00
"CA002100FRN","1985-09-11",58.10,23.00,0.00,0.00,0.00
"CA002100FRN","1985-09-12",60.80,34.70,0.00,0.00,0.00
"CA002100FRN","1985-09-13",59.90,30.20,0.00,0.00,0.00
"CA002100FRN","1985-09-14",64.40,22.10,0.00,0.00,0.00
"CA002100FRN","1985-09-15",58.10,44.60,32.00,0.00,0.00
"CA002100FRN","1985-09-16",52.70,42.80,7.00,0.00,0.00
"CA002100FRN","1985-09-17",36.50,29.30,0.00,0.00,0.00
"CA002100FRN","1985-09-18",42.80,25.70,0.00,0.00,0.00
"CA002100FRN","1985-09-19",57.20,38.30,2.00,0.00,0.00
"CA002100FRN","1985-09-20",44.60,28.40,14.00,0.00,0.00
"CA002100FRN","1985-09-21",46.40,23.90,0.00,0.00,0.00
"CA002100FRN","1985-09-22",43.70,19.40,34.00,14.00,0.00
"CA002100FRN","1985-09-23",52.70,37.40,9.00,0.00,0.00
"CA002100FRN","1985-09-24",56.30,28.40,0.00,0.00,0.00
"CA002100FRN","1985-09-25",50.90,35.60,50.00,0.00,0.00
"CA002100FRN","1985-09-26",48.20,19.40,4.00,0.00,0.00
"CA002100FRN","1985-09-27",53.60,37.40,0.00,0.00,0.00
"CA002100FRN","1985-09-28",59.90,39.20,0.00,0.00,0.00
"CA002100FRN","1985-09-29",45.50,23.00,4.00,0.00,0.00
"CA002100FRN","1985-09-30",52.70,39.20,36.00,0.00,0.00
"CA002100FRN","1985-10-01",51.80,31.10,0.00,0.00,0.00
"CA002100FRN","1985-10-02",50.00,35.60,0.00,0.00,0.00
"CA002100FRN","1985-10-03",50.00,32.00,18.00,12.00,0.00
"CA002100FRN","1985-10-04",42.80,32.00,12.00,12.00,
"CA002100FRN","1985-10-05",45.50,21.20,0.00,0.00,
"CA002100FRN","1985-10-06",40.10,14.90,0.00,0.00,
"CA002100FRN","1985-10-07",46.40,31.10,0.00,0.00,
"CA002100FRN","1985-10-08",50.00,23.90,0.00,0.00,
"CA002100FRN","1985-10-09",49.10,38.30,5.00,0.00,
"CA002100FRN","1985-10-10",45.50,26.60,28.00,18.00,
"CA002100FRN","1985-10-11",40.10,30.20,4.00,0.00,
"CA002100FRN","1985-10-12",42.80,25.70,0.00,0.00,
"CA002100FRN","1985-10-13",42.80,16.70,0.00,0.00,
"CA002100FRN","1985-10-14",34.70,31.10,6.00,6.00,
"CA002100FRN","1985-10-15",40.10,17.60,0.00,0.00,
"CA002100FRN","1985-10-16",38.30,21.20,6.00,6.00,
"CA002100FRN","1985-10-17",38.30,20.30,0.00,0.00,
"CA002100FRN","1985-10-18",33.80,17.60,20.00,20.00,
"CA002100FRN","1985-10-19",28.40,24.80,40.00,40.00,40.00
"CA002100FRN","1985-10-20",25.70,14.90,0.00,0.00,40.00
"CA002100FRN","1985-10-21",23.00,1.40,30.00,30.00,40.00
"CA002100FRN","1985-10-22",26.60,19.40,40.00,40.00,80.00
"CA002100FRN","1985-10-23",15.80,1.40,14.00,14.00,80.00
"CA002100FRN","1985-10-24",23.00,-1.30,0.00,0.00,80.00
"CA002100FRN","1985-10-25",31.10,6.80,0.00,0.00,70.00
"CA002100FRN","1985-10-26",17.60,12.20,68.00,68.00,70.00
"CA002100FRN","1985-10-27",15.80,5.00,0.00,0.00,120.00
"CA002100FRN","1985-10-28",10.40,-7.60,30.00,30.00,120.00
"CA002100FRN","1985-10-29",16.70,2.30,14.00,14.00,150.00
"CA002100FRN","1985-10-30",15.80,0.50,0.00,0.00,150.00
"CA002100FRN","1985-10-31",22.10,8.60,0.00,0.00,150.00
"CA002100FRN","1985-11-01",25.70,0.50,0.00,0.00,140.00
"CA002100FRN","1985-11-02",26.60,7.70,2.00,2.00,130.00
"CA002100FRN","1985-11-03",25.70,5.00,0.00,0.00,130.00
"CA002100FRN","1985-11-04",14.00,-5.80,4.00,4.00,130.00
"CA002100FRN","1985-11-05",9.50,-10.30,0.00,0.00,130.00
"CA002100FRN","1985-11-06",6.80,-5.80,2.00,2.00,130.00
"CA002100FRN","1985-11-07",7.70,2.30,6.00,6.00,140.00
"CA002100FRN","1985-11-08",1.40,-5.80,0.00,0.00,140.00
"CA002100FRN","1985-11-09",1.40,-27.40,0.00,0.00,140.00
"CA002100FRN","1985-11-10",14.90,-22.00,0.00,0.00,130.00
"CA002100FRN","1985-11-11",17.60,3.20,0.00,0.00,130.00
"CA002100FRN","1985-11-12",27.50,2.30,36.00,36.00,140.00
"CA002100FRN","1985-11-13",18.50,12.20,56.00,56.00,200.00
"CA002100FRN","1985-11-14",7.70,-4.00,6.00,6.00,220.00
"CA002100FRN","1985-11-15",-0.40,-5.80,0.00,0.00,220.00
"CA002100FRN","1985-11-16",-12.10,-31.00,0.00,0.00,210.00
"CA002100FRN","1985-11-17",8.60,-37.30,82.00,82.00,250.00
"CA002100FRN","1985-11-18",9.50,-4.90,6.00,6.00,280.00
"CA002100FRN","1985-11-19",5.00,-11.20,2.00,2.00,280.00
"CA002100FRN","1985-11-20",1.40,-13.90,0.00,0.00,270.00
"CA002100FRN","1985-11-21",-4.00,-27.40,0.00,0.00,270.00
"CA002100FRN","1985-11-22",0.50,-24.70,0.00,0.00,270.00
"CA002100FRN","1985-11-23",22.10,-13.90,0.00,0.00,260.00
"CA002100FRN","1985-11-24",8.60,-5.80,0.00,0.00,240.00
"CA002100FRN","1985-11-25",-4.00,-32.80,0.00,0.00,230.00
"CA002100FRN","1985-11-26",-14.80,-38.20,0.00,0.00,230.00
"CA002100FRN","1985-11-27",-27.40,-43.60,0.00,0.00,230.00
"CA002100FRN","1985-11-28",-25.60,-40.00,0.00,0.00,220.00
"CA002100FRN","1985-11-29",-21.10,-38.20,0.00,0.00,220.00
"CA002100FRN","1985-11-30",-19.30,-32.80,0.00,0.00,220.00